Lid_Strength_Index
5 4 4 4 4 4 4 4 4 4 4 4 4 4 4 4 5 7 9 7 7 6 8 10 10 10 10 10 7 6 12 14 13 13 12 11 12 10 10 12 10 10 9 8 8
5 5 4 4 4 4 4 4 4 4 4 4 4 4 4 5 8 10 7 5 6 7 11 12 12 11 12 12 10 10 13 13 11 10 11 11 12 12 13 13 13 12 10 10 10
5 5 5 5 4 4 4 4 4 4 4 5 4 5 5 7 13 11 7 7 7 9 10 11 11 12 14 12 12 12 13 11 11 11 11 13 13 11 13 15 12 12 12 10 10
5 5 5 5 5 4 4 4 4 4 4 5 5 5 7 9 16 9 7 8 8 9 11 12 12 14 15 15 13 15 14 13 12 12 12 13 12 13 12 13 11 10 10 10 10
5 5 5 5 5 4 4 4 4 4 5 5 5 6 9 13 13 7 8 9 9 10 12 13 14 14 16 15 14 15 14 13 11 11 11 10 12 11 12 10 9 9 9 10 10
5 5 5 5 5 4 4 4 4 5 5 5 6 7 10 15 10 8 10 10 10 11 12 12 13 12 14 14 14 13 13 12 10 10 9 11 11 10 10 8 8 8 9 9 9
5 5 5 5 5 4 4 4 5 5 6 6 6 7 11 12 9 9 10 10 10 11 12 11 11 13 13 14 11 12 13 11 10 9 10 9 12 11 8 7 8 8 8 8 8
5 5 5 5 4 4 4 5 5 6 6 7 6 8 13 9 8 10 10 11 10 10 10 10 10 11 12 10 12 13 12 14 10 9 9 10 14 10 7 7 8 8 8 8 7
5 5 5 4 4 3 4 5 6 7 8 8 9 10 15 10 12 11 10 12 11 11 10 10 10 11 11 12 14 12 15 14 12 9 9 10 12 9 7 7 8 8 7 7 7
5 5 5 4 4 4 5 6 8 9 10 10 11 15 13 14 12 11 10 11 12 12 12 11 11 12 11 12 17 15 14 14 14 11 9 11 11 9 7 7 8 7 6 6 6
5 5 4 4 4 5 8 10 12 13 12 14 14 15 14 12 11 12 11 12 12 13 15 13 14 14 12 11 12 13 13 14 12 10 11 12 11 10 8 7 7 7 7 7 6
5 4 4 4 4 7 9 13 13 13 18 13 14 14 13 12 15 13 11 14 14 15 13 14 15 11 11 11 12 13 14 14 12 10 10 11 12 10 8 8 7 7 7 8 8
4 4 4 4 4 8 11 12 10 10 17 15 14 15 14 12 15 14 12 13 14 15 14 15 12 10 12 13 14 13 14 14 14 11 10 11 13 11 9 8 8 9 9 8 9
4 4 4 4 7 10 10 10 9 10 18 17 16 15 14 14 16 12 11 12 13 14 13 13 11 12 12 13 12 16 11 12 13 14 17 11 20 13 11 11 10 10 9 9 9
5 5 5 5 7 10 10 10 11 13 20 17 17 12 14 15 14 13 10 12 14 13 13 13 12 12 13 13 12 14 11 12 13 14 15 14 17 14 12 12 11 11 10 10 9
4 4 5 7 8 9 10 10 12 17 21 18 17 17 17 15 14 13 13 11 11 13 11 12 9 10 11 11 11 10 13 13 16 16 19 16 16 16 13 14 13 11 11 11 11
5 5 6 6 10 10 10 13 17 19 15 17 18 17 16 15 15 16 16 15 15 16 14 12 11 10 10 12 14 14 14 19 20 19 19 15 17 15 11 12 14 13 12 12 11
6 6 8 8 10 11 12 14 22 18 18 16 17 16 17 16 16 16 16 17 12 14 15 16 18 13 10 11 13 14 15 18 23 21 19 15 19 15 13 11 11 11 12 11 12
7 8 9 10 10 11 12 19 19 19 17 18 17 19 19 16 16 16 16 16 13 13 15 15 16 10 10 9 11 15 17 14 17 19 21 17 16 12 11 12 12 13 13 13 13
9 11 12 10 11 12 15 18 18 16 16 17 20 18 21 18 17 16 16 13 13 11 10 12 16 11 12 10 10 12 12 17 15 22 22 19 18 17 14 15 14 15 14 14 14
11 14 12 11 10 14 19 19 19 15 15 18 19 20 18 18 17 17 16 13 10 10 10 10 14 14 13 13 14 14 15 14 14 15 20 22 20 12 15 15 16 15 15 15 15
12 16 12 11 16 16 19 19 16 16 15 16 16 17 18 17 18 17 17 13 8 8 11 10 13 15 14 13 13 13 15 14 17 19 17 18 20 14 14 15 15 15 15 15 15
16 15 11 12 19 19 18 18 17 18 17 17 18 16 15 19 20 17 15 10 9 9 10 10 14 17 16 14 14 14 14 14 14 15 19 21 19 13 13 13 14 16 16 15 15
15 19 16 14 15 18 19 20 20 16 17 17 17 16 18 19 17 19 17 13 10 9 6 7 12 15 18 15 13 16 15 15 16 19 18 18 18 15 13 14 15 16 16 16 17
15 17 17 19 18 18 18 19 20 21 18 17 19 18 18 22 21 20 17 15 12 9 9 9 14 13 14 13 14 16 17 16 18 17 19 18 18 15 14 15 16 16 16 17 18
16 17 17 18 18 19 18 20 21 20 20 20 20 19 18 21 19 19 17 15 15 12 12 9 14 13 15 14 16 18 17 18 18 18 18 18 18 13 14 15 15 16 17 18 18
13 14 16 18 19 20 20 19 20 19 18 17 17 18 20 18 15 13 12 11 12 13 13 12 13 15 18 18 18 20 16 18 17 17 15 17 13 14 14 15 15 16 18 18 18